Location: Tahamrit
(32.9448°N, 5.5567°W)
Time: 18:27:39
(UTC+00:00)

Daily predictions for brighter satellites

Satellite Brightness Start Highest point End
(mag) Time Altitude Azimuth Time Altitude Azimuth Time Altitude Azimuth
Cosmos 1709 Rocket 4.0 18:32:50 10° S 18:38:56 85° E 18:45:08 10° N
CZ-2C R/B 3.3 18:33:59 10° SSE 18:39:47 75° ENE 18:45:31 10° N
Cosmos 1812 2.7 18:36:49 10° N 18:40:38 64° E 18:44:24 10° SSE
Nadezhda 1 Rocket 4.5 18:34:45 10° N 18:41:03 70° W 18:47:23 10° S
Cosmos 1331 Rocket 4.1 18:36:36 10° S 18:41:46 56° ESE 18:46:55 10° NNE
Meteor 2-6 Rocket 4.2 18:36:29 10° N 18:42:11 79° E 18:47:41 10° S
Cosmos 1689 Rocket 2.8 18:39:41 10° NNE 18:42:17 31° E 18:44:52 10° SSE
CZ-2C R/B 3.5 18:37:44 10° NE 18:42:24 28° E 18:46:58 10° SSE
Gbstr 26 Del rocket 3.5 18:38:27 10° WSW 18:42:27 60° NW 18:47:15 10° NE
Cosmos 292 Rocket 4.0 18:40:18 10° SSW 18:45:02 77° WNW 18:49:48 10° NNE
SEDSat Delta rocket 3.5 18:41:07 10° W 18:46:07 64° S 18:50:30 10° ESE
Abrixas rocket 2.4 18:45:06 10° SSW 18:47:23 31° SE 18:49:31 11° ENE
BREEZE-M DEB (TANK) 4.4 18:46:07 10° WNW 18:48:45 37° SW 18:54:48 10° SSE
Cosmos 2181 Rocket 4.3 18:43:42 10° N 18:49:54 47° E 18:56:00 10° SSE
Cosmos 1242 Rocket 2.4 18:48:37 10° N 18:52:11 83° E 18:55:46 10° S
YAOGAN 1 2.9 18:49:21 10° SE 18:53:25 43° ENE 18:57:30 10° N
Helios 1A Rocket 4.0 18:50:45 10° SE 18:54:04 24° ENE 18:57:22 10° NNE
Okean-O 3.0 18:50:36 10° SE 18:54:46 43° ENE 18:58:58 10° N
Cosmos 1500 Rocket 4.4 18:51:06 10° SSW 18:55:22 54° W 18:59:38 10° N
Cosmos 2219 4.0 18:50:13 10° NNW 18:55:41 57° WSW 19:01:10 10° S
Cosmos 220 Rocket 3.9 18:52:44 10° SSW 18:56:55 90° NE 19:01:09 10° NNE
OAO 3 Copernicus 4.5 18:52:13 10° WNW 18:57:18 73° SSW 19:02:18 10° ESE
SL-4 R/B 4.5 18:58:01 10° NW 18:58:53 11° NNW 18:59:45 10° NNW
Cosmos 1818 3.6 18:54:17 10° NNW 18:59:41 60° ENE 19:05:02 10° SE
COSMO-SKYMED 1 4.3 18:56:13 10° N 19:00:11 36° WNW 19:04:09 10° SW
Cosmos 1980 Rocket 2.5 18:56:01 10° SSW 19:01:37 73° WNW 19:07:18 10° NNE
Sich 1 3.0 19:00:18 10° S 19:04:34 64° E 19:08:54 10° NNE
Timation 1 Rocket 4.3 19:00:33 10° NNW 19:06:31 71° ENE 19:12:26 10° SSE
Lacrosse 5 rocket 2.4 19:05:07 10° NNW 19:08:54 29° NE 19:10:59 19° E
Cosmos 1302 Rocket 4.1 19:04:52 10° S 19:09:50 49° ESE 19:14:50 10° NNE
Cosmos 2322 Rocket 3.2 19:06:54 10° SSE 19:11:18 24° ESE 19:15:03 13° NE
CZ-4B R/B 4.3 19:11:47 10° NNW 19:13:45 16° WNW 19:15:44 10° WSW
SJ-11-01 4.2 19:09:13 10° SSE 19:13:50 70° ENE 19:18:29 10° N
Atlas Centaur 2 3.8 19:10:51 10° W 19:16:30 30° SSW 19:21:08 10° SSE
Cosmos 44 3.7 19:11:31 10° NNW 19:16:51 52° ENE 19:22:01 10° SE
Cosmos 1867 4.4 19:13:32 10° SW 19:18:46 51° WNW 19:24:05 10° NNE
Cosmos 1633 Rocket 3.3 19:16:31 10° SSE 19:20:42 45° E 19:24:56 10° NNE
Cosmos 2082 3.7 19:15:39 10° NNW 19:21:16 84° WSW 19:26:53 10° SSE
Cosmos 1437 4.0 19:19:41 10° NNE 19:21:07 22° NE 19:21:07 22° NE
Cosmos 1707 Rocket 3.9 19:18:54 10° N 19:23:05 42° E 19:27:11 10° SSE
Meteor 1-20 Rocket 4.1 19:19:02 10° S 19:24:24 62° E 19:29:47 10° NNE
ERS-2 3.4 19:23:59 10° N 19:27:27 42° WNW 19:30:54 10° SW
Cosmos 1741 Rocket 4.3 19:22:41 10° NNW 19:28:00 72° WSW 19:33:14 10° S
RESURS DK-1 4.5 19:25:15 10° NW 19:28:50 29° WSW 19:32:24 10° SSW
SL-16 R/B 2.3 19:25:08 10° S 19:30:33 49° ESE 19:36:00 10° NNE
Yuri Rocket 4.4 19:26:11 10° W 19:33:52 57° S 19:37:10 26° ESE
CZ-4 R/B 2.8 19:34:58 10° SSW 19:38:32 37° W 19:42:07 10° NNW
Ariane Rocket 4.5 19:43:24 20° NE 19:43:24 20° NE 19:45:38 10° NNE
Cosmos 2154 Rocket 3.9 19:38:21 10° S 19:44:31 66° E 19:50:41 10° NNE
SME Rocket 4.2 19:41:46 10° NNE 19:49:43 54° E 19:54:54 10° S
DMSP B5D2-2 3.9 19:44:45 10° NNE 19:50:00 83° ESE 19:55:13 10° S
Nadezhda 3 Rocket 4.1 19:46:06 10° N 19:52:16 51° E 19:57:11 16° SSE
Cosmos 1470 Rocket 3.5 19:48:21 10° S 19:52:45 59° E 19:57:10 10° NNE
ERBS 3.1 19:50:14 10° SW 19:53:27 47° NW 19:53:55 43° NNW
Cosmos 2074 Rocket 4.4 19:47:16 10° SSW 19:53:28 64° W 19:59:43 10° N
Cosmos 2263 Rocket 2.2 19:49:36 10° N 19:55:02 52° ENE 19:55:56 47° E
Meteor 1-14 Rocket 4.2 19:49:36 10° S 19:55:06 53° E 20:00:29 10° NNE
Cosmos 1610 Rocket 4.3 19:49:28 10° S 19:55:36 82° E 20:01:49 10° N
CZ-3 Stage 3 2.5 19:54:10 10° W 19:58:22 49° SW 19:58:22 49° SW
H-2A R/B 3.9 19:57:48 10° SSW 20:02:33 32° W 20:07:24 10° NW
ARGOS 4.1 19:59:00 10° S 20:04:12 48° W 20:09:25 10° NNW
SL-08 RB Rocket 4.2 20:01:26 10° S 20:05:49 57° W 20:10:16 10° NNW
Cosmos 1271 Rocket 3.3 20:06:50 10° NNW 20:10:28 53° W 20:10:33 53° W
Cosmos 1295 Rocket 4.4 20:04:36 10° S 20:10:55 89° W 20:17:12 10° N
Cosmos 1461 4.2 20:06:27 10° SW 20:10:55 44° WNW 20:13:50 20° N
MetOp-A 4.0 20:13:34 57° SSE 20:14:42 83° ENE 20:20:04 10° N
COSMOS 2455 3.1 20:14:08 10° NNW 20:20:05 64° WSW 20:23:02 30° S
Meteor 1-18 Rocket 4.2 20:14:19 10° N 20:20:16 78° E 20:20:40 74° ESE
CZ-2C R/B 4.5 20:17:51 10° N 20:22:34 30° WNW 20:27:14 10° SW
Cosmos 2341 Rocket 4.4 20:22:58 10° S 20:31:12 48° NNE 20:35:38 10° N
Cosmos 2360 Rocket 3.6 20:24:18 10° S 20:26:28 24° S 20:26:28 24° S
Cosmos 962 Rocket 4.3 20:24:51 10° S 20:30:59 88° W 20:37:14 10° N
Lacrosse 5 rocket 3.7 20:44:25 10° WNW 20:46:41 22° W 20:46:41 22° W
Cosmos 2322 Rocket 3.5 20:49:57 10° SW 20:55:03 36° WNW 20:57:04 28° NNW
